Location: Lublin
(51.2481°N, 22.5703°E)
Time: 18:40:24
(UTC+02:00)

ISS - Visible Passes

Search period start: 20 September 2018 00:00
Search period end: 30 September 2018 00:00
Orbit: 403 x 408 km, 51.6° (Epoch: 20 September)

Date Brightness Start Highest point End Pass type
(mag) Time Alt. Az. Time Alt. Az. Time Alt. Az.
22 Sep -1.5 20:28:08 10° SSW 20:28:49 14° SSW 20:28:49 14° SSW visible
23 Sep -2.2 19:36:57 10° S 19:39:17 18° SE 19:39:35 18° SE visible
23 Sep -0.8 21:12:05 10° WSW 21:12:18 11° WSW 21:12:18 11° WSW visible
24 Sep -3.0 20:20:22 10° SW 20:22:51 38° SSW 20:22:51 38° SSW visible
25 Sep -2.9 19:28:47 10° SW 19:31:45 31° SSE 19:33:16 21° ESE visible
25 Sep -1.5 21:04:44 10° WSW 21:05:57 21° WSW 21:05:57 21° WSW visible
26 Sep -3.9 20:12:51 10° WSW 20:16:08 71° SSE 20:16:13 70° SSE visible
27 Sep -3.6 19:21:02 10° SW 19:24:16 52° SSE 19:26:24 19° E visible
27 Sep -1.8 20:57:24 10° W 20:59:05 27° W 20:59:05 27° W visible
28 Sep -3.9 20:05:27 10° W 20:08:46 89° N 20:09:10 66° ENE visible
29 Sep -3.8 19:13:31 10° WSW 19:16:49 78° SSE 19:19:13 17° E visible
29 Sep -2.0 20:50:02 10° W 20:51:53 30° W 20:51:53 30° W visible
